{"data":{"norad_id":45453,"epoch":"2026-09-19T16:05:40.301376Z","epoch_age_seconds":89982,"freshness":"FRESH","line1":"1 45453U 20020AF  26262.67060534  .00001389  00000+0  13969-3 0  9995","line2":"2 45453  88.9337 220.3791 0004290  32.3945 327.7546 14.90630968354457","mean_motion":14.90630968,"eccentricity":0.000429,"inclination_deg":88.9337,"raan_deg":220.3791,"arg_perigee_deg":32.3945,"mean_anomaly_deg":327.7546,"bstar":0.00013969,"rev_number":35445,"period_min":96.603386814918,"perigee_km":592.97503826584,"apogee_km":598.9588194368,"semimajor_km":6974.1039288513,"source":"CELESTRAK","updated_at":"2026-09-20T09:00:44.558400Z"}}